Location: Montreal
(45.5000°N, 73.5833°W)
Time: 00:58:29
(UTC-04:00)

Tiangong 1 - Pass Details

Date: 14 October 2017
Orbit: 293 x 320 km, 42.8° (Epoch: 20 October)

Event Time Altitude Azimuth Distance (km) Brightness Sun altitude
Rises 20:04:55 0° 267° (W) 2,038 6.2 -20.9°
Reaches altitude 10° 20:07:42 10° 235° (SW) 1,199 4.1 -21.3°
Enters shadow 20:08:36 12° 216° (SW) 1,082 3.6 -21.5°
